DW7792 Weather Reports


Display with metric or nautical units.
time (UTC)temp
F
wind
direction
speed
MPH
gust
MPH
rain 1hr
in
rain 24hr
in
rain mn
in
humidity
%
barometer
mb
20190123003238 18 322 17.0 35.0 0.00 0.00 0.00 82 1014.1
20190123001643 18 322 16.0 29.0 0.00 0.00 0.00 82 1014.2
20190123000107 18 322 13.0 24.0 0.00 0.00 0.00 81 1014.2
20190122234618 18 322 15.0 28.0 0.00 0.00 0.00 81 1014.1
20190122233105 18 322 12.0 20.0 0.00 0.00 0.00 80 1014.1
20190122231614 17 322 16.0 27.0 0.00 0.00 0.00 80 1013.8
20190122230059 17 322 11.0 21.0 0.00 0.00 0.00 81 1013.8
20190122224631 16 322 11.0 21.0 0.00 0.00 0.00 81 1013.7
20190122223034 16 322 14.0 23.0 0.00 0.00 0.00 81 1013.7
20190122221523 15 322 8.0 20.0 0.00 0.00 0.00 81 1013.4
20190122220011 15 322 11.0 23.0 0.00 0.00 0.00 80 1013.1
20190122214510 15 322 13.0 23.0 0.00 0.00 0.00 80 1012.8
20190122213126 14 322 14.0 23.0 0.00 0.00 0.00 79 1012.5
20190122211638 14 322 9.0 24.0 0.00 0.00 0.00 78 1012.2
20190122210156 14 322 12.0 19.0 0.00 0.00 0.00 78 1012.2
20190122204618 14 322 13.0 23.0 0.00 0.00 0.00 78 1012.0
20190122203110 14 322 12.0 26.0 0.00 0.00 0.00 77 1011.9
20190122201607 14 322 14.0 22.0 0.00 0.00 0.00 78 1011.6
20190122200131 13 322 13.0 24.0 0.00 0.00 0.00 78 1011.6
20190122194619 14 322 10.0 23.0 0.00 0.00 0.00 78 1011.2
20190122193057 13 322 14.0 25.0 0.00 0.00 0.00 80 1010.8
20190122191538 13 322 13.0 26.0 0.00 0.00 0.00 85 1010.2
20190122190021 13 322 11.0 23.0 0.00 0.00 0.00 87 1009.9
20190122184521 13 322 9.0 24.0 0.00 0.00 0.00 87 1009.6
20190122183015 13 322 11.0 26.0 0.00 0.00 0.00 85 1009.1
20190122181515 14 322 8.0 17.0 0.00 0.00 0.00 82 1009.0
20190122180145 14 322 10.0 21.0 0.00 0.00 0.00 82 1008.7
20190122174613 14 322 20.0 32.0 0.00 0.00 0.00 79 1008.3
20190122173317 15 322 12.0 26.0 0.00 0.00 0.00 81 1008.0
20190122171629 14 322 18.0 29.0 0.00 0.00 0.00 80 1007.8
20190122170146 15 322 14.0 23.0 0.00 0.00 0.00 81 1007.7
20190122164640 15 322 10.0 20.0 0.00 0.00 0.00 81 1007.7
20190122163102 15 322 11.0 21.0 0.00 0.00 0.00 81 1007.7
20190122161538 14 322 8.0 18.0 0.00 0.00 0.00 84 1007.7
20190122160109 15 322 11.0 19.0 0.00 0.00 0.00 85 1007.7
20190122154553 15 322 13.0 23.0 0.00 0.00 0.00 84 1007.6
20190122153034 14 322 11.0 21.0 0.00 0.00 0.00 85 1007.5
20190122151524 15 322 11.0 24.0 0.00 0.00 0.00 84 1007.5
20190122150016 15 322 11.0 26.0 0.00 0.00 0.00 86 1007.3
20190122144649 14 322 13.0 24.0 0.00 0.00 0.00 87 1007.2
20190122143230 14 322 12.0 26.0 0.00 0.00 0.00 89 1007.0
20190122141627 15 322 14.0 24.0 0.00 0.00 0.00 90 1006.6
20190122140210 15 322 11.0 21.0 0.00 0.00 0.00 90 1006.4
20190122134634 15 322 7.0 18.0 0.00 0.00 0.00 89 1006.2
20190122133119 16 322 14.0 22.0 0.00 0.00 0.00 89 1005.8
20190122131558 16 322 13.0 22.0 0.00 0.00 0.00 90 1005.5
20190122130056 16 322 9.0 21.0 0.00 0.00 0.00 90 1005.2
20190122124559 17 322 8.0 17.0 0.00 0.00 0.00 89 1004.9
20190122123106 17 322 9.0 17.0 0.00 0.00 0.00 87 1004.7
20190122121614 17 322 9.0 15.0 0.00 0.00 0.00 87 1004.4
20190122120032 18 322 7.0 13.0 0.00 0.00 0.00 87 1004.1
20190122114549 18 322 10.0 17.0 0.00 0.05 0.00 87 1003.9
20190122113040 18 322 8.0 14.0 0.00 0.05 0.00 89 1003.6
20190122111557 18 322 10.0 16.0 0.00 0.05 0.00 89 1003.5
20190122110058 19 322 6.0 15.0 0.00 0.05 0.00 90 1003.3
20190122104528 19 322 9.0 13.0 0.00 0.12 0.00 89 1003.1
20190122103032 20 322 7.0 12.0 0.00 0.12 0.00 90 1002.8
20190122101520 20 322 6.0 11.0 0.00 0.12 0.00 90 1002.5
20190122100004 20 322 8.0 13.0 0.00 0.12 0.00 90 1002.2
20190122094723 20 322 7.0 14.0 0.00 0.20 0.00 91 1002.1
20190122093248 21 322 6.0 13.0 0.00 0.20 0.00 91 1001.9
20190122091723 21 322 3.0 10.0 0.00 0.20 0.00 91 1001.7
20190122090253 22 322 7.0 12.0 0.00 0.20 0.00 91 1001.5
20190122084651 22 322 3.0 10.0 0.00 0.30 0.00 92 1001.2
20190122083102 22 322 7.0 10.0 0.00 0.30 0.00 92 1001.1
20190122081621 23 322 5.0 9.0 0.00 0.30 0.00 92 1001.1
20190122080130 23 322 4.0 8.0 0.00 0.30 0.00 92 1001.0
20190122074605 23 322 4.0 7.0 0.00 0.55 0.00 92 1000.8
20190122073118 23 322 2.0 5.0 0.00 0.55 0.00 92 1000.6
20190122071607 23 322 3.0 5.0 0.00 0.55 0.00 92 1000.4
20190122070116 23 322 3.0 6.0 0.00 0.55 0.00 92 1000.4
20190122064615 23 322 2.0 4.0 0.00 0.78 0.00 92 1000.4
20190122063108 22 322 0.0 0.0 0.00 0.78 0.00 92 1000.4
20190122061558 22 322 0.0 4.0 0.00 0.78 0.00 92 1000.1
20190122060103 22 322 0.0 3.0 0.00 0.78 0.00 92 999.8
20190122054538 22 322 2.0 4.0 0.00 1.02 0.00 92 999.8
20190122053034 22 322 2.0 4.0 0.00 1.02 0.00 92 999.8
20190122051555 22 322 0.0 3.0 0.00 1.02 0.00 92 1000.3
20190122050034 23 322 3.0 5.0 0.00 1.02 0.00 91 1000.3
20190122044601 23 322 3.0 5.0 0.00 1.32 0.00 91 1000.3
20190122043042 23 322 0.0 7.0 0.00 1.32 0.00 91 1000.6
20190122041551 23 322 3.0 6.0 0.00 1.32 0.00 91 1000.2
20190122040041 23 322 1.0 3.0 0.00 1.32 0.00 91 1000.1
20190122034539 23 322 0.0 2.0 0.00 1.56 1.32 91 1000.3
20190122033025 23 322 3.0 6.0 0.00 1.56 1.32 91 999.6
20190122031543 23 322 2.0 7.0 0.00 1.56 1.32 91 999.9
20190122030025 23 322 3.0 5.0 0.00 1.56 1.32 91 999.8
20190122024516 24 322 2.0 6.0 0.00 1.63 1.32 91 999.2
20190122023024 24 322 4.0 6.0 0.00 1.63 1.32 91 999.2
20190122021517 24 322 4.0 9.0 0.00 1.63 1.32 91 999.5
20190122020013 24 322 9.0 13.0 0.00 1.63 1.32 91 999.0
20190122014527 25 322 6.0 11.0 0.00 1.74 1.32 91 999.3
20190122011507 24 322 7.0 12.0 0.00 1.74 1.32 91 999.9
20190122010008 25 322 6.0 10.0 0.00 1.74 1.32 91 999.8
20190122004504 25 322 2.0 14.0 0.00 1.83 1.32 91 998.6